Regional Weather Roundup
Issued by NWS Northern Indiana

Home | Current Version | Previous Version | Text Only | Print | Product List | Glossary On
Versions: 1 2 3 4 5 6 7 8 9 10 11 12 13 14 15 16 17 18 19 20 21 22 23 24 25 26 27 28 29 30 31 32 33 34 35 36 37 38 39 40 41 42 43 44 45 46 47 48 49 50
000
ASUS43 KIWX 240410
RWRIWX

KIWX WEATHER ROUNDUP
NATIONAL WEATHER SERVICE NORTHERN INDIANA
1200 AM EDT WED MAY 24 2017

NOTE: "FAIR" INDICATES FEW OR NO CLOUDS BELOW 12,000 FEET WITH NO
SIGNIFICANT WEATHER AND/OR OBSTRUCTIONS TO VISIBILITY.

* THESE STATIONS ARE NOT UNDER NWS QUALITY CONTROL. THEY ALSO MAY NOT
  REPORT WEATHER SUCH AS PRECIPITATION OR FOG.

INZ001>027-240500-
NORTHERN INDIANA

CITY           SKY/WX    TMP DP  RH WIND       PRES   REMARKS
GARY*          CLOUDY    56  53  88 NE6       29.68F
VALPARAISO     CLOUDY    57  55  93 N5        29.67F
MICHIGAN CITY* CLOUDY    54  54 100 CALM      29.68F
LAPORTE*       CLOUDY    56  54  92 N6        29.68F
KNOX*          CLOUDY    57  50  77 N5        29.66F
SOUTH BEND     CLOUDY    57  55  93 N6        29.68F
GOSHEN         CLOUDY    59  54  83 NE10      29.66F
MONTICELLO*    CLOUDY    62  56  82 N6        29.64S
LOGANSPORT*    CLOUDY    61  54  77 N6        29.64F
ROCHESTER*     CLOUDY    63  57  82 NE3       29.65F
WARSAW*        CLOUDY    59  54  82 NE5       29.66F
ANGOLA*        CLEAR     59  54  82 NE5       29.67F
FORT WAYNE     CLOUDY    63  50  62 NE9       29.65F
HUNTINGTON*    CLOUDY    61  52  72 NE3       29.64S
PERU/GRISSOM   CLOUDY    62  56  80 NE9       29.62F
MARION*        CLOUDY    63  50  63 CALM      29.64S HAZE

$$
INZ028>050-240500-
CENTRAL INDIANA

CITY           SKY/WX    TMP DP  RH WIND       PRES   REMARKS
LAFAYETTE      CLOUDY    61  55  81 NW8       29.64S
KOKOMO*        CLOUDY    62  54  74 NE10      29.64F
MUNCIE*        CLOUDY    66  51  58 SE5       29.63F
INDIANAPOLIS   CLOUDY    64  50  60 SW6       29.62F

$$
MIZ043>046-050>051-056>058-064>065-071>073-077>080-240500-
SOUTHWEST LOWER MICHIGAN

CITY           SKY/WX    TMP DP  RH WIND       PRES   REMARKS
BATTLE CREEK   CLOUDY    58  56  93 NE7       29.70F
BENTON HARBOR  CLOUDY    57  54  89 CALM      29.69F
COLDWATER*     CLOUDY    57  56  94 NE5       29.69F
HILLSDALE*     PTCLDY    57  52  82 NE9       29.69S
HOLLAND        CLOUDY    59  55  87 NE3       29.71F
GRAND RAPIDS   CLOUDY    57  56  96 E5        29.71F
KALAMAZOO      CLOUDY    58  53  84 NE5       29.69F
STURGIS*       CLOUDY    58  55  88 NE10      29.67F
THREE RIVERS*  FAIR      57  55  92 NE3       29.68F

$$
OHZ001>008-015>018-024>025-240500-
NORTHWEST OHIO

CITY           SKY/WX    TMP DP  RH WIND       PRES   REMARKS
WAUSEON*       FAIR      61  50  67 NE12      29.68F
DEFIANCE       CLOUDY    61  47  59 NE6       29.67F
FINDLAY        CLOUDY    63  47  55 NE9       29.64F
TOLEDO EXPRESS CLOUDY    60  49  66 NE8       29.67F
TOLEDO METCALF CLOUDY    62  49  62 E8        29.67F
LIMA           PTCLDY    60  53  77 E8        29.64F

$$
AND FOR LAKE MICHIGAN COASTAL AND OPEN LAKE BUOY OBSERVATIONS

STATION/POSITION TEMP    WIND        PRES    VSBY  WAVE
                 AIR SEA DIR/SP/G                  HT/PER
                 (F)     (DEG/KT/KT) (MB)    (MI)  (FT/S)
CALUMET HARBOR    55     340/  6/  7 1004.6F
MICHIGAN CITY     53      40/  9/ 10   N/A
BURNS HARBOR      54      70/  7/  9 1005.8F
SOUTH LAKE BUOY   50 45   30/  4/  6 1006.2F         0
4 MI NW BRIDGMAN  55 56   50/ 10/ 12 1005.4          1/ 2
MICHIGAN CITY     53 53   50/ 10/ 12   N/A           1/ 2

$$
&&




USA.gov is the U.S. government's official web portal to all federal, state and local government web resources and services.